| time (UTC) | temp C | wind direction | speed KPH | gust KPH | rain 1hr cm | rain 24hr cm | rain mn cm | humidity % | barometer mb |
| 20260503202012 | 28 | 200 | 0.0 | 1.6 | 0.00 | 0.00 | 0.00 | 29 | 1005.5 |
| 20260503201524 | 28 | 239 | 0.0 | 1.6 | 0.00 | 0.00 | 0.00 | 29 | 1005.6 |
| 20260503201008 | 28 | 243 | 0.0 | 19.3 | 0.00 | 0.00 | 0.00 | 29 | 1005.7 |
| 20260503200507 | 28 | 276 | 4.8 | 20.9 | 0.00 | 0.00 | 0.00 | 31 | 1005.7 |
| 20260503200007 | 28 | 257 | 0.0 | 1.6 | 0.00 | 0.00 | 0.00 | 33 | 1005.8 |
| 20260503195506 | 27 | 260 | 0.0 | 1.6 | 0.00 | 0.00 | 0.00 | 32 | 1005.8 |
| 20260503195004 | 27 | 243 | 0.0 | 1.6 | 0.00 | 0.00 | 0.00 | 33 | 1005.9 |
| 20260503194504 | 28 | 235 | 0.0 | 1.6 | 0.00 | 0.00 | 0.00 | 35 | 1006.0 |
| 20260503194003 | 27 | 284 | 0.0 | 1.6 | 0.00 | 0.00 | 0.00 | 34 | 1006.0 |
| 20260503193502 | 27 | 207 | 0.0 | 1.6 | 0.00 | 0.00 | 0.00 | 35 | 1006.2 |
| 20260503193001 | 27 | 267 | 0.0 | 1.6 | 0.00 | 0.00 | 0.00 | 37 | 1006.2 |
| 20260503192600 | 27 | 49 | 0.0 | 1.6 | 0.00 | 0.00 | 0.00 | 36 | 1006.2 |
| 20260503192102 | 27 | 250 | 0.0 | 1.6 | 0.00 | 0.00 | 0.00 | 37 | 1006.3 |
| 20260503191601 | 27 | 239 | 0.0 | 1.6 | 0.00 | 0.00 | 0.00 | 37 | 1006.5 |
| 20260503191059 | 27 | 266 | 0.0 | 17.7 | 0.00 | 0.00 | 0.00 | 37 | 1006.6 |
| 20260503190556 | 27 | 268 | 0.0 | 9.7 | 0.00 | 0.00 | 0.00 | 38 | 1006.4 |
| 20260503190055 | 27 | 249 | 0.0 | 1.6 | 0.00 | 0.00 | 0.00 | 39 | 1006.6 |
| 20260503185553 | 27 | 259 | 0.0 | 1.6 | 0.00 | 0.00 | 0.00 | 40 | 1006.7 |
| 20260503185036 | 27 | 262 | 0.0 | 0.0 | 0.00 | 0.00 | 0.00 | 42 | 1006.8 |
| 20260503184534 | 26 | 236 | 0.0 | 1.6 | 0.00 | 0.00 | 0.00 | 43 | 1006.9 |
| 20260503184033 | 26 | 163 | 0.0 | 1.6 | 0.00 | 0.00 | 0.00 | 42 | 1007.1 |
| 20260503183532 | 26 | 261 | 0.0 | 1.6 | 0.00 | 0.00 | 0.00 | 44 | 1007.2 |
| 20260503183037 | 25 | 262 | 0.0 | 1.6 | 0.00 | 0.00 | 0.00 | 45 | 1007.3 |
| 20260503182529 | 25 | 240 | 0.0 | 1.6 | 0.00 | 0.00 | 0.00 | 45 | 1007.4 |
| 20260503182011 | 25 | 258 | 0.0 | 3.2 | 0.00 | 0.00 | 0.00 | 45 | 1007.4 |
| 20260503181524 | 25 | 329 | 0.0 | 1.6 | 0.00 | 0.00 | 0.00 | 45 | 1007.4 |
| 20260503181010 | 25 | 245 | 0.0 | 1.6 | 0.00 | 0.00 | 0.00 | 46 | 1007.6 |
| 20260503180510 | 25 | 245 | 0.0 | 1.6 | 0.00 | 0.00 | 0.00 | 47 | 1007.6 |
| 20260503180009 | 24 | 245 | 0.0 | 1.6 | 0.00 | 0.00 | 0.00 | 47 | 1007.7 |
| 20260503175508 | 25 | 256 | 0.0 | 1.6 | 0.00 | 0.00 | 0.00 | 46 | 1007.8 |
| 20260503175050 | 24 | 276 | 0.0 | 1.6 | 0.00 | 0.00 | 0.00 | 49 | 1007.8 |
| 20260503174555 | 24 | 245 | 0.0 | 1.6 | 0.00 | 0.00 | 0.00 | 49 | 1007.9 |
| 20260503174049 | 23 | 251 | 0.0 | 1.6 | 0.00 | 0.00 | 0.00 | 51 | 1008.0 |
| 20260503173548 | 23 | 250 | 0.0 | 1.6 | 0.00 | 0.00 | 0.00 | 54 | 1008.0 |
| 20260503173055 | 23 | 219 | 0.0 | 1.6 | 0.00 | 0.00 | 0.00 | 55 | 1008.1 |
| 20260503172548 | 23 | 252 | 0.0 | 1.6 | 0.00 | 0.00 | 0.00 | 56 | 1008.2 |
| 20260503172027 | 22 | 248 | 0.0 | 1.6 | 0.00 | 0.00 | 0.00 | 57 | 1008.3 |
| 20260503171527 | 22 | 250 | 0.0 | 1.6 | 0.00 | 0.00 | 0.00 | 57 | 1008.4 |
| 20260503171027 | 22 | 233 | 0.0 | 1.6 | 0.00 | 0.00 | 0.00 | 56 | 1008.5 |
| 20260503170527 | 23 | 248 | 0.0 | 0.0 | 0.00 | 0.00 | 0.00 | 56 | 1008.5 |
| 20260503150552 | 17 | 229 | 0.0 | 1.6 | 0.00 | 0.00 | 0.00 | 77 | 1009.7 |
| 20260503131019 | 13 | 240 | 0.0 | 0.0 | 0.00 | 0.00 | 0.00 | 90 | 1008.5 |
| 20260503130517 | 13 | 241 | 0.0 | 0.0 | 0.00 | 0.00 | 0.00 | 91 | 1008.4 |
| 20260503110533 | -17 | 0.0 | 0.0 | 0.00 | 0.00 | 0.00 | 1007.2 | ||
| 20260503081518 | 13 | 338 | 0.0 | 0.0 | 0.00 | 0.00 | 0.00 | 87 | 1006.6 |
| 20260503081014 | 13 | 339 | 0.0 | 0.0 | 0.00 | 0.00 | 0.00 | 86 | 1006.7 |
| 20260503080515 | 13 | 338 | 0.0 | 0.0 | 0.00 | 0.00 | 0.00 | 87 | 1006.6 |
| 20260503072555 | 13 | 68 | 0.0 | 1.6 | 0.00 | 0.00 | 0.00 | 88 | 1006.6 |
| 20260503072055 | 13 | 250 | 0.0 | 0.0 | 0.00 | 0.00 | 0.00 | 88 | 1006.7 |
| 20260503071538 | 13 | 250 | 0.0 | 0.0 | 0.00 | 0.00 | 0.00 | 88 | 1006.9 |
| 20260503071035 | 13 | 250 | 0.0 | 0.0 | 0.00 | 0.00 | 0.00 | 87 | 1006.9 |
| 20260503070535 | 13 | 250 | 0.0 | 0.0 | 0.00 | 0.00 | 0.00 | 86 | 1006.9 |
| 20260503060113 | 15 | 58 | 0.0 | 1.6 | 0.00 | 0.00 | 0.00 | 82 | 1006.4 |
| 20260503055052 | 15 | 32 | 0.0 | 1.6 | 0.00 | 0.00 | 0.00 | 82 | 1006.3 |
| 20260503054552 | 15 | 61 | 0.0 | 1.6 | 0.00 | 0.00 | 0.00 | 83 | 1006.4 |
| 20260503054039 | 15 | 64 | 0.0 | 0.0 | 0.00 | 0.00 | 0.00 | 85 | 1006.4 |
| 20260503053539 | 15 | 238 | 0.0 | 0.0 | 0.00 | 0.00 | 0.00 | 85 | 1006.3 |
| 20260503053042 | 15 | 225 | 0.0 | 1.6 | 0.00 | 0.00 | 0.00 | 85 | 1006.3 |
| 20260503052537 | 15 | 226 | 0.0 | 1.6 | 0.00 | 0.00 | 0.00 | 85 | 1006.2 |
| 20260503052037 | 15 | 200 | 0.0 | 1.6 | 0.00 | 0.00 | 0.00 | 84 | 1006.2 |
| 20260503051535 | 15 | 219 | 0.0 | 0.0 | 0.00 | 0.00 | 0.00 | 83 | 1006.1 |
| 20260503051033 | 15 | 232 | 0.0 | 0.0 | 0.00 | 0.00 | 0.00 | 82 | 1006.1 |
| 20260503050533 | 16 | 224 | 0.0 | 0.0 | 0.00 | 0.00 | 0.00 | 81 | 1005.8 |
| 20260503050035 | 16 | 224 | 0.0 | 0.0 | 0.00 | 0.00 | 0.00 | 80 | 1005.8 |
| 20260503045533 | 16 | 224 | 0.0 | 0.0 | 0.00 | 0.00 | 0.00 | 80 | 1005.7 |
| 20260503045034 | 16 | 224 | 0.0 | 0.0 | 0.00 | 0.00 | 0.00 | 80 | 1005.6 |
| 20260503044604 | 16 | 224 | 0.0 | 0.0 | 0.00 | 0.00 | 0.00 | 80 | 1005.5 |
| 20260503044030 | 16 | 224 | 0.0 | 0.0 | 0.00 | 0.00 | 0.00 | 80 | 1005.5 |
| 20260503043529 | 16 | 223 | 0.0 | 0.0 | 0.00 | 0.00 | 0.00 | 79 | 1005.4 |
| 20260503043028 | 16 | 231 | 0.0 | 0.0 | 0.00 | 0.00 | 0.00 | 78 | 1005.2 |
| 20260503042528 | 16 | 136 | 0.0 | 0.0 | 0.00 | 0.00 | 0.00 | 78 | 1005.1 |
| 20260503042028 | 16 | 98 | 0.0 | 0.0 | 0.00 | 0.00 | 0.00 | 78 | 1005.0 |
| 20260503041528 | 16 | 74 | 0.0 | 1.6 | 0.00 | 0.00 | 0.00 | 79 | 1004.9 |
| 20260503041026 | 16 | 113 | 0.0 | 1.6 | 0.00 | 0.00 | 0.00 | 79 | 1004.9 |
| 20260503040525 | 16 | 129 | 0.0 | 1.6 | 0.00 | 0.00 | 0.00 | 80 | 1004.7 |
| 20260503040025 | 16 | 63 | 0.0 | 1.6 | 0.00 | 0.00 | 0.00 | 80 | 1004.6 |
| 20260503035524 | 16 | 63 | 0.0 | 4.8 | 0.00 | 0.00 | 0.00 | 80 | 1004.5 |
| 20260503035023 | 16 | 72 | 0.0 | 4.8 | 0.00 | 0.00 | 0.00 | 80 | 1004.3 |
| 20260503034523 | 16 | 41 | 0.0 | 1.6 | 0.00 | 0.00 | 0.00 | 80 | 1004.1 |
| 20260503034012 | 16 | 142 | 0.0 | 9.7 | 0.00 | 0.00 | 0.00 | 81 | 1004.2 |
| 20260503033510 | 16 | 72 | 1.6 | 17.7 | 0.00 | 0.00 | 0.00 | 81 | 1004.1 |
| 20260503033013 | 16 | 65 | 1.6 | 17.7 | 0.00 | 0.00 | 0.00 | 81 | 1004.0 |
| 20260503032508 | 16 | 61 | 3.2 | 16.1 | 0.00 | 0.00 | 0.00 | 81 | 1003.7 |
| 20260503032015 | 16 | 63 | 4.8 | 16.1 | 0.00 | 0.00 | 0.00 | 81 | 1003.5 |
| 20260503031508 | 16 | 39 | 6.4 | 16.1 | 0.00 | 0.00 | 0.00 | 80 | 1003.5 |
| 20260503031008 | 16 | 53 | 0.0 | 22.5 | 0.00 | 0.00 | 0.00 | 80 | 1003.3 |
| 20260503030508 | 16 | 48 | 6.4 | 22.5 | 0.00 | 0.00 | 0.00 | 79 | 1003.3 |
| 20260503030011 | 16 | 148 | 4.8 | 17.7 | 0.00 | 0.00 | 0.00 | 79 | 1002.9 |
| 20260503025512 | 16 | 60 | 4.8 | 20.9 | 0.00 | 0.00 | 0.00 | 79 | 1002.8 |
| 20260503025007 | 16 | 50 | 3.2 | 19.3 | 0.00 | 0.00 | 0.00 | 79 | 1002.7 |
| 20260503024505 | 16 | 20 | 8.0 | 19.3 | 0.00 | 0.00 | 0.00 | 78 | 1002.6 |
| 20260503024004 | 17 | 64 | 3.2 | 12.9 | 0.00 | 0.00 | 0.00 | 77 | 1002.6 |
| 20260503023504 | 17 | 48 | 0.0 | 9.7 | 0.00 | 0.00 | 0.00 | 76 | 1002.3 |
| 20260503023005 | 17 | 63 | 0.0 | 9.7 | 0.00 | 0.00 | 0.00 | 75 | 1002.1 |
| 20260503022505 | 17 | 49 | 0.0 | 19.3 | 0.00 | 0.00 | 0.00 | 74 | 1001.9 |
| 20260503022002 | 18 | 60 | 8.0 | 19.3 | 0.00 | 0.00 | 0.00 | 72 | 1001.8 |
| 20260503021501 | 18 | 70 | 0.0 | 14.5 | 0.00 | 0.00 | 0.00 | 71 | 1001.7 |
| 20260503021001 | 18 | 86 | 3.2 | 11.3 | 0.00 | 0.00 | 0.00 | 70 | 1001.5 |
| 20260503020601 | 18 | 79 | 0.0 | 17.7 | 0.00 | 0.00 | 0.00 | 69 | 1001.4 |
| 20260503020115 | 19 | 359 | 4.8 | 17.7 | 0.00 | 0.00 | 0.00 | 67 | 1001.3 |
| 20260503015559 | 20 | 65 | 0.0 | 14.5 | 0.00 | 0.00 | 0.00 | 65 | 1001.0 |
| 20260503015058 | 20 | 68 | 3.2 | 14.5 | 0.00 | 0.00 | 0.00 | 62 | 1000.9 |
| 20260503014615 | 21 | 188 | 0.0 | 8.0 | 0.00 | 0.00 | 0.00 | 60 | 1000.8 |
| 20260503014039 | 21 | 48 | 0.0 | 8.0 | 0.00 | 0.00 | 0.00 | 58 | 1000.4 |
| 20260503013541 | 22 | 343 | 0.0 | 1.6 | 0.00 | 0.00 | 0.00 | 54 | 1000.6 |
| 20260503013041 | 23 | 61 | 0.0 | 1.6 | 0.00 | 0.00 | 0.00 | 49 | 1000.3 |
| 20260503012541 | 25 | 67 | 0.0 | 9.7 | 0.00 | 0.00 | 0.00 | 43 | 1000.2 |
| 20260503012037 | 26 | 64 | 4.8 | 9.7 | 0.00 | 0.00 | 0.00 | 39 | 1000.2 |
| 20260503011537 | 27 | 243 | 0.0 | 1.6 | 0.00 | 0.00 | 0.00 | 19 | 1000.1 |
| 20260503011020 | 27 | 219 | 0.0 | 1.6 | 0.00 | 0.00 | 0.00 | 19 | 1000.0 |
| 20260503010521 | 27 | 204 | 0.0 | 1.6 | 0.00 | 0.00 | 0.00 | 19 | 1000.0 |
| 20260503010020 | 27 | 240 | 0.0 | 1.6 | 0.00 | 0.00 | 0.00 | 19 | 999.9 |
| 20260503005520 | 27 | 228 | 0.0 | 1.6 | 0.00 | 0.00 | 0.00 | 19 | 999.8 |
| 20260503005019 | 28 | 226 | 0.0 | 1.6 | 0.00 | 0.00 | 0.00 | 19 | 999.8 |
| 20260503004519 | 28 | 255 | 0.0 | 1.6 | 0.00 | 0.00 | 0.00 | 19 | 999.7 |
| 20260503004002 | 28 | 253 | 0.0 | 9.7 | 0.00 | 0.00 | 0.00 | 19 | 999.7 |
| 20260503003501 | 28 | 262 | 0.0 | 17.7 | 0.00 | 0.00 | 0.00 | 19 | 999.6 |
| 20260503003001 | 28 | 250 | 12.9 | 17.7 | 0.00 | 0.00 | 0.00 | 17 | 999.5 |
| 20260503002501 | 28 | 226 | 3.2 | 8.0 | 0.00 | 0.00 | 0.00 | 17 | 999.5 |
| 20260503002003 | 28 | 214 | 0.0 | 1.6 | 0.00 | 0.00 | 0.00 | 16 | 999.4 |
| 20260503001503 | 29 | 251 | 0.0 | 1.6 | 0.00 | 0.00 | 0.00 | 16 | 999.4 |
| 20260503001048 | 29 | 258 | 0.0 | 1.6 | 0.00 | 0.00 | 0.00 | 17 | 999.2 |
| 20260503000543 | 29 | 248 | 0.0 | 1.6 | 0.00 | 0.00 | 0.00 | 16 | 999.3 |
| 20260503000049 | 29 | 231 | 0.0 | 14.5 | 0.00 | 0.00 | 0.00 | 17 | 999.2 |
| 20260502235543 | 29 | 245 | 3.2 | 14.5 | 0.00 | 0.00 | 0.00 | 17 | 999.1 |
| 20260502235043 | 29 | 226 | 0.0 | 3.2 | 0.00 | 0.00 | 0.00 | 17 | 999.1 |
| 20260502234553 | 30 | 236 | 0.0 | 1.6 | 0.00 | 0.00 | 0.00 | 17 | 999.0 |
| 20260502234025 | 29 | 255 | 0.0 | 12.9 | 0.00 | 0.00 | 0.00 | 17 | 998.9 |
| 20260502233525 | 29 | 262 | 0.0 | 12.9 | 0.00 | 0.00 | 0.00 | 17 | 998.9 |
| 20260502233024 | 30 | 256 | 0.0 | 3.2 | 0.00 | 0.00 | 0.00 | 16 | 998.8 |
| 20260502232524 | 30 | 233 | 0.0 | 1.6 | 0.00 | 0.00 | 0.00 | 16 | 998.8 |
| 20260502232024 | 30 | 150 | 0.0 | 16.1 | 0.00 | 0.00 | 0.00 | 16 | 998.9 |
| 20260502231624 | 30 | 277 | 4.8 | 17.7 | 0.00 | 0.00 | 0.00 | 17 | 998.8 |
| 20260502231015 | 30 | 231 | 8.0 | 24.1 | 0.00 | 0.00 | 0.00 | 16 | 998.7 |
| 20260502230514 | 30 | 253 | 12.9 | 24.1 | 0.00 | 0.00 | 0.00 | 16 | 998.7 |
| 20260502230010 | 30 | 262 | 14.5 | 22.5 | 0.00 | 0.00 | 0.00 | 16 | 998.6 |
| 20260502225509 | 30 | 239 | 14.5 | 22.5 | 0.00 | 0.00 | 0.00 | 16 | 998.7 |
| 20260502225009 | 30 | 239 | 0.0 | 4.8 | 0.00 | 0.00 | 0.00 | 16 | 998.6 |
| 20260502224509 | 30 | 252 | 0.0 | 17.7 | 0.00 | 0.00 | 0.00 | 17 | 998.6 |
| 20260502224017 | 30 | 232 | 3.2 | 20.9 | 0.00 | 0.00 | 0.00 | 17 | 998.7 |
| 20260502223508 | 30 | 261 | 3.2 | 20.9 | 0.00 | 0.00 | 0.00 | 17 | 998.8 |
| 20260502223022 | 30 | 219 | 12.9 | 20.9 | 0.00 | 0.00 | 0.00 | 17 | 998.9 |
| 20260502222508 | 30 | 207 | 8.0 | 22.5 | 0.00 | 0.00 | 0.00 | 17 | 998.9 |
| 20260502222007 | 30 | 232 | 9.7 | 24.1 | 0.00 | 0.00 | 0.00 | 17 | 998.8 |
| 20260502221507 | 30 | 236 | 14.5 | 25.7 | 0.00 | 0.00 | 0.00 | 17 | 999.0 |
| 20260502221010 | 30 | 219 | 8.0 | 25.7 | 0.00 | 0.00 | 0.00 | 17 | 999.0 |
| 20260502220505 | 30 | 260 | 0.0 | 24.1 | 0.00 | 0.00 | 0.00 | 18 | 998.9 |
| 20260502220006 | 30 | 280 | 12.9 | 25.7 | 0.00 | 0.00 | 0.00 | 18 | 999.0 |
| 20260502215504 | 30 | 243 | 14.5 | 25.7 | 0.00 | 0.00 | 0.00 | 17 | 999.0 |
| 20260502215002 | 30 | 251 | 11.3 | 20.9 | 0.00 | 0.00 | 0.00 | 18 | 999.1 |
| 20260502214502 | 30 | 219 | 9.7 | 25.7 | 0.00 | 0.00 | 0.00 | 17 | 999.1 |
| 20260502214004 | 30 | 220 | 11.3 | 25.7 | 0.00 | 0.00 | 0.00 | 17 | 999.1 |
| 20260502213601 | 30 | 266 | 0.0 | 25.7 | 0.00 | 0.00 | 0.00 | 18 | 999.2 |
| 20260502213121 | 30 | 276 | 11.3 | 25.7 | 0.00 | 0.00 | 0.00 | 19 | 999.1 |
| 20260502212559 | 30 | 243 | 12.9 | 22.5 | 0.00 | 0.00 | 0.00 | 17 | 999.3 |
| 20260502212159 | 30 | 219 | 4.8 | 19.3 | 0.00 | 0.00 | 0.00 | 18 | 999.3 |
| 20260502211600 | 30 | 249 | 6.4 | 24.1 | 0.00 | 0.00 | 0.00 | 17 | 999.3 |
| 20260502211059 | 30 | 260 | 6.4 | 20.9 | 0.00 | 0.00 | 0.00 | 18 | 999.4 |
| 20260502210540 | 30 | 260 | 0.0 | 9.7 | 0.00 | 0.00 | 0.00 | 18 | 999.5 |
| 20260502210039 | 30 | 252 | 0.0 | 19.3 | 0.00 | 0.00 | 0.00 | 18 | 999.5 |
| 20260502205538 | 30 | 243 | 11.3 | 19.3 | 0.00 | 0.00 | 0.00 | 17 | 999.6 |
| 20260502205038 | 30 | 253 | 3.2 | 20.9 | 0.00 | 0.00 | 0.00 | 17 | 999.7 |
| 20260502204540 | 30 | 239 | 12.9 | 20.9 | 0.00 | 0.00 | 0.00 | 18 | 999.7 |
| 20260502204040 | 30 | 214 | 8.0 | 20.9 | 0.00 | 0.00 | 0.00 | 18 | 999.7 |
| 20260502203520 | 30 | 269 | 12.9 | 20.9 | 0.00 | 0.00 | 0.00 | 17 | 999.9 |
| 20260502203023 | 30 | 246 | 0.0 | 3.2 | 0.00 | 0.00 | 0.00 | 17 | 999.9 |
| 20260502202518 | 30 | 263 | 0.0 | 12.9 | 0.00 | 0.00 | 0.00 | 17 | 1000.0 |